Windom, MN

1:27 AM CDT on September 24, 2017 (GMT -0500)
Windom Municipal

Weather History for KMWM - October, 2012

Change the Weather History Date:

Tuesday, October 2, 2012

  Actual Average Record
Temperature  
Mean Temperature 53 °F -  
Max Temperature 73 °F 71 °F 113 °F (1998)
Min Temperature 33 °F 41 °F 20 °F (1974)
Degree Days  
Heating Degree Days 12    
Growing Degree Days 3 (Base 50)    
Moisture  
Dew Point 29 °F    
Average Humidity 41    
Maximum Humidity 75    
Minimum Humidity 14    
Precipitation  
Precipitation 0.00 in - - ()
Sea Level Pressure  
Sea Level Pressure 29.91 in    
Wind  
Wind Speed 5 mph (South)    
Max Wind Speed 12 mph    
Max Gust Speed 17 mph    
Visibility 10 miles    
Events      
Averages and records for this station are not official NWS values.
T = Trace of Precipitation, MM = Missing Value Source: NWS Daily Summary

Daily Weather History Graph

Daily Weather History Graph

Search for Another Location

Airport or City:

Trip Planner

Search our weather history database for the weather conditions in past years. The results will help you decide how hot, cold, wet, or windy it might be!

Date:

Astronomy

Oct. 02, 2012 Rise Set
Actual Time 7:19 AM CDT 6:58 PM CDT
Civil Twilight 6:51 AM CDT 7:27 PM CDT
Nautical Twilight 6:17 AM CDT 8:00 PM CDT
Astronomical Twilight 5:43 AM CDT 8:34 PM CDT
Moon 8:04 PM CDT (10/2) 9:54 AM CDT (10/2)
Length of Visible Light 12h 36m
Length of Day
11h 38m
Waning Gibbous, 94% of the Moon is Illuminated
Oct 2
Waning Gibbous
Oct 8
Last Quarter
Oct 15
New
Oct 21
First Quarter
Oct 29
Full

Hourly Weather History & Observations

Time (CDT) Temp. Windchill Dew Point Humidity Pressure Visibility Wind Dir Wind Speed Gust Speed Precip Events Conditions
12:32 AM 48.2 °F - 28.4 °F 46% 29.99 in 10.0 mi NNW 10.4 mph - N/A   Clear
12:52 AM 48.2 °F - 28.4 °F 46% 29.98 in 10.0 mi NNW 9.2 mph - N/A   Clear
1:12 AM 48.2 °F - 28.4 °F 46% 29.99 in 10.0 mi NW 8.1 mph - N/A   Clear
1:32 AM 44.6 °F 40.7 °F 28.4 °F 53% 29.99 in 10.0 mi NNW 6.9 mph - N/A   Clear
1:53 AM 42.8 °F 39.3 °F 28.4 °F 57% 29.98 in 10.0 mi North 5.8 mph - N/A   Clear
2:12 AM 41.0 °F 37.1 °F 26.6 °F 57% 29.98 in 10.0 mi North 5.8 mph - N/A   Clear
2:32 AM 42.8 °F 41.1 °F 28.4 °F 57% 29.98 in 10.0 mi NNE 3.5 mph - N/A   Clear
2:53 AM 42.8 °F - 28.4 °F 57% 29.98 in 10.0 mi Calm Calm - N/A   Clear
3:12 AM 39.2 °F - 26.6 °F 61% 29.97 in 10.0 mi Calm Calm - N/A   Clear
3:33 AM 39.2 °F - 26.6 °F 61% 29.97 in 10.0 mi Calm Calm - N/A   Clear
3:53 AM 39.2 °F - 26.6 °F 61% 29.97 in 10.0 mi Calm Calm - N/A   Clear
4:12 AM 37.4 °F - 26.6 °F 65% 29.97 in 10.0 mi Calm Calm - N/A   Clear
4:53 AM 35.6 °F - 26.6 °F 70% 29.97 in 10.0 mi Calm Calm - N/A   Clear
5:12 AM 35.6 °F - 26.6 °F 70% 29.96 in 10.0 mi Calm Calm - N/A   Clear
5:33 AM 35.6 °F 32.8 °F 26.6 °F 70% 29.97 in 10.0 mi West 3.5 mph - N/A   Clear
5:53 AM 35.6 °F - 26.6 °F 70% 29.97 in 10.0 mi Calm Calm - N/A   Clear
6:12 AM 33.8 °F - 26.6 °F 75% 29.97 in 10.0 mi Calm Calm - N/A   Clear
6:33 AM 35.6 °F - 26.6 °F 70% 29.97 in 10.0 mi Calm Calm - N/A   Clear
6:53 AM 33.8 °F - 26.6 °F 75% 29.97 in 10.0 mi Calm Calm - N/A   Clear
7:12 AM 33.8 °F - 26.6 °F 75% 29.98 in 10.0 mi Calm Calm - N/A   Clear
7:33 AM 33.8 °F - 26.6 °F 75% 29.97 in 10.0 mi Calm Calm - N/A   Clear
8:13 AM 37.4 °F - 28.4 °F 70% 29.98 in 10.0 mi Calm Calm - N/A   Clear
8:32 AM 41.0 °F - 28.4 °F 61% 29.97 in 10.0 mi Calm Calm - N/A   Clear
8:53 AM 44.6 °F - 30.2 °F 57% 29.98 in 7.0 mi Calm Calm - N/A   Clear
9:13 AM 48.2 °F - 30.2 °F 50% 29.97 in 7.0 mi Calm Calm - N/A   Clear
9:32 AM 51.8 °F - 32.0 °F 47% 29.97 in 10.0 mi Calm Calm - N/A   Clear
9:53 AM 55.4 °F - 33.8 °F 44% 29.97 in 10.0 mi South 3.5 mph - N/A   Clear
10:13 AM 57.2 °F - 35.6 °F 44% 29.96 in 10.0 mi SSE 3.5 mph - N/A   Clear
10:32 AM 60.8 °F - 35.6 °F 39% 29.96 in 10.0 mi South 5.8 mph - N/A   Clear
10:53 AM 64.4 °F - 37.4 °F 37% 29.95 in 10.0 mi South 4.6 mph - N/A   Clear
11:13 AM 64.4 °F - 35.6 °F 34% 29.94 in 10.0 mi SSE 5.8 mph - N/A   Clear
11:32 AM 66.2 °F - 33.8 °F 30% 29.94 in 10.0 mi South 9.2 mph - N/A   Clear
11:53 AM 66.2 °F - 33.8 °F 30% 29.93 in 10.0 mi South 9.2 mph - N/A   Clear
12:13 PM 68.0 °F - 32.0 °F 26% 29.93 in 10.0 mi South 10.4 mph - N/A   Clear
12:32 PM 68.0 °F - 32.0 °F 26% 29.92 in 10.0 mi South 6.9 mph - N/A   Clear
12:53 PM 69.8 °F - 30.2 °F 23% 29.92 in 10.0 mi SSW 6.9 mph - N/A   Clear
1:12 PM 69.8 °F - 30.2 °F 23% 29.91 in 10.0 mi SSE 8.1 mph - N/A   Clear
1:33 PM 71.6 °F - 30.2 °F 22% 29.90 in 10.0 mi SSW 9.2 mph - N/A   Clear
1:53 PM 71.6 °F - 28.4 °F 20% 29.88 in 10.0 mi South 9.2 mph - N/A   Clear
2:12 PM 71.6 °F - 26.6 °F 19% 29.87 in 10.0 mi SSW 6.9 mph - N/A   Clear
2:33 PM 71.6 °F - 26.6 °F 19% 29.86 in 10.0 mi South 8.1 mph 16.1 mph N/A   Clear
2:52 PM 71.6 °F - 26.6 °F 19% 29.86 in 10.0 mi South 11.5 mph - N/A   Clear
3:13 PM 73.4 °F - 26.6 °F 18% 29.85 in 10.0 mi SW 9.2 mph 17.3 mph N/A   Clear
3:32 PM 73.4 °F - 26.6 °F 18% 29.85 in 10.0 mi SSE 10.4 mph - N/A   Clear
3:52 PM 73.4 °F - 26.6 °F 18% 29.85 in 10.0 mi SSW 6.9 mph 16.1 mph N/A   Clear
4:12 PM 73.4 °F - 24.8 °F 16% 29.85 in 10.0 mi South 10.4 mph - N/A   Clear
4:32 PM 73.4 °F - 23.0 °F 15% 29.84 in 10.0 mi SW 10.4 mph - N/A   Clear
4:53 PM 73.4 °F - 21.2 °F 14% 29.84 in 10.0 mi SSW 9.2 mph - N/A   Clear
5:12 PM 73.4 °F - 21.2 °F 14% 29.84 in 10.0 mi SSW 9.2 mph - N/A   Clear
5:32 PM 73.4 °F - 23.0 °F 15% 29.83 in 10.0 mi SSW 10.4 mph 17.3 mph N/A   Clear
5:53 PM 71.6 °F - 23.0 °F 16% 29.83 in 10.0 mi South 9.2 mph - N/A   Clear
6:12 PM 71.6 °F - 24.8 °F 17% 29.83 in 10.0 mi South 8.1 mph - N/A   Clear
6:32 PM 69.8 °F - 26.6 °F 20% 29.83 in 10.0 mi South 4.6 mph - N/A   Clear
6:53 PM 66.2 °F - 26.6 °F 23% 29.83 in 10.0 mi South 3.5 mph - N/A   Clear
7:12 PM 64.4 °F - 26.6 °F 24% 29.83 in 10.0 mi SSE 4.6 mph - N/A   Clear
7:32 PM 60.8 °F - 26.6 °F 27% 29.84 in 10.0 mi SSE 5.8 mph - N/A   Clear
7:53 PM 60.8 °F - 26.6 °F 27% 29.84 in 10.0 mi South 3.5 mph - N/A   Clear
8:12 PM 59.0 °F - 26.6 °F 29% 29.85 in 10.0 mi Calm Calm - N/A   Clear
8:32 PM 57.2 °F - 28.4 °F 33% 29.85 in 10.0 mi South 3.5 mph - N/A   Clear
8:53 PM 55.4 °F - 33.8 °F 44% 29.85 in 10.0 mi South 4.6 mph - N/A   Clear
9:12 PM 53.6 °F - 33.8 °F 47% 29.86 in 10.0 mi South 3.5 mph - N/A   Clear
9:32 PM 55.4 °F - 30.2 °F 38% 29.86 in 10.0 mi South 3.5 mph - N/A   Clear
9:53 PM 53.6 °F - 33.8 °F 47% 29.86 in 10.0 mi SSE 3.5 mph - N/A   Clear
10:12 PM 51.8 °F - 30.2 °F 44% 29.86 in 10.0 mi Calm Calm - N/A   Clear
10:32 PM 51.8 °F - 30.2 °F 44% 29.86 in 10.0 mi South 3.5 mph - N/A   Clear
10:53 PM 51.8 °F - 30.2 °F 44% 29.86 in 10.0 mi South 3.5 mph - N/A   Clear
11:12 PM 51.8 °F - 30.2 °F 44% 29.87 in 10.0 mi Calm Calm - N/A   Clear
11:32 PM 51.8 °F - 28.4 °F 41% 29.87 in 10.0 mi South 3.5 mph - N/A   Clear
11:53 PM 50.0 °F - 30.2 °F 47% 29.86 in 10.0 mi South 3.5 mph - N/A   Clear